TimeMST,TemperatureF,Dew PointF,Humidity,Sea Level PressureIn,VisibilityMPH,Wind Direction,Wind SpeedMPH,Gust SpeedMPH,PrecipitationIn,Events,Conditions,WindDirDegrees,DateUTC
12:53 AM,57.0,21.0,25,29.99,10.0,SSW,9.2,-,N/A,,Overcast,210,2013-12-15 07:53:00
1:53 AM,45.0,19.9,37,30.00,10.0,NNW,4.6,-,N/A,,Mostly Cloudy,330,2013-12-15 08:53:00
2:53 AM,55.0,19.0,24,29.97,10.0,NNW,9.2,-,N/A,,Clear,330,2013-12-15 09:53:00
3:53 AM,55.9,21.0,26,29.95,10.0,NW,16.1,-,N/A,,Clear,310,2013-12-15 10:53:00
4:53 AM,60.1,19.0,20,29.89,10.0,NW,20.7,28.8,N/A,,Clear,320,2013-12-15 11:53:00
5:53 AM,52.0,19.0,27,29.92,10.0,NNW,6.9,-,N/A,,Clear,340,2013-12-15 12:53:00
6:53 AM,57.0,19.0,23,29.90,10.0,SE,9.2,-,N/A,,Clear,140,2013-12-15 13:53:00
7:53 AM,52.0,18.0,26,29.96,10.0,Calm,Calm,-,N/A,,Clear,0,2013-12-15 14:53:00
8:53 AM,46.0,17.1,31,29.95,10.0,Variable,3.5,-,N/A,,Clear,0,2013-12-15 15:53:00
9:53 AM,64.0,18.0,17,29.93,10.0,Variable,5.8,-,N/A,,Clear,0,2013-12-15 16:53:00
10:53 AM,64.9,18.0,16,29.87,10.0,SE,4.6,-,N/A,,Clear,140,2013-12-15 17:53:00
11:53 AM,61.0,19.0,20,29.86,10.0,ESE,5.8,-,N/A,,Clear,120,2013-12-15 18:53:00
12:53 PM,55.0,21.0,27,29.85,10.0,Variable,3.5,-,N/A,,Clear,0,2013-12-15 19:53:00
1:53 PM,59.0,17.1,20,29.87,10.0,Calm,Calm,-,N/A,,Clear,0,2013-12-15 20:53:00
2:53 PM,53.1,21.0,29,29.86,10.0,Variable,4.6,-,N/A,,Clear,0,2013-12-15 21:53:00
3:53 PM,51.1,21.0,31,29.87,10.0,South,8.1,-,N/A,,Clear,180,2013-12-15 22:53:00
4:53 PM,59.0,17.1,20,29.84,10.0,Calm,Calm,-,N/A,,Clear,0,2013-12-15 23:53:00
5:53 PM,55.9,15.1,20,29.88,10.0,WNW,4.6,-,N/A,,Clear,300,2013-12-16 00:53:00
6:53 PM,60.1,15.1,17,29.85,10.0,WNW,23.0,31.1,N/A,,Clear,300,2013-12-16 01:53:00
7:53 PM,60.1,16.0,18,29.87,10.0,WNW,21.9,31.1,N/A,,Clear,300,2013-12-16 02:53:00
8:53 PM,59.0,16.0,19,29.89,10.0,WNW,19.6,26.5,N/A,,Clear,300,2013-12-16 03:53:00
9:53 PM,59.0,17.1,20,29.83,10.0,NW,21.9,36.8,N/A,,Clear,310,2013-12-16 04:53:00
10:53 PM,57.9,16.0,19,29.84,10.0,NW,23.0,35.7,N/A,,Clear,310,2013-12-16 05:53:00
11:53 PM,55.9,16.0,21,29.87,10.0,NW,23.0,29.9,N/A,,Clear,310,2013-12-16 06:53:00